status,avgMeasuredTime,avgSpeed,extID,medianMeasuredTime,TIMESTAMP,vehicleCount,_id,REPORT_ID
OK,88,37,730,88,2014-08-01T07:50:00,0,20746282,187854
OK,88,37,730,88,2014-08-01T07:55:00,0,20746454,187854
OK,195,16,730,195,2014-08-01T08:00:00,2,20746785,187854
OK,147,22,730,147,2014-08-01T08:05:00,3,20747234,187854
OK,122,26,730,122,2014-08-01T08:10:00,1,20747607,187854
OK,122,26,730,122,2014-08-01T08:15:00,0,20748056,187854
OK,122,26,730,122,2014-08-01T08:20:00,0,20748505,187854
OK,109,30,730,109,2014-08-01T08:25:00,1,20748954,187854
OK,111,29,730,111,2014-08-01T08:30:00,3,20749403,187854
OK,126,26,730,126,2014-08-01T08:35:00,4,20749852,187854
OK,142,23,730,142,2014-08-01T08:40:00,2,20750301,187854
OK,142,23,730,142,2014-08-01T08:45:00,0,20750750,187854
OK,142,23,730,142,2014-08-01T08:50:00,0,20751199,187854
OK,101,32,730,101,2014-08-01T08:55:00,1,20751648,187854
OK,150,21,730,150,2014-08-01T09:00:00,2,20752097,187854
OK,159,20,730,159,2014-08-01T09:05:00,2,20752546,187854
OK,119,27,730,119,2014-08-01T09:10:00,0,20752995,187854
OK,86,38,730,86,2014-08-01T09:15:00,2,20753444,187854
OK,72,45,730,72,2014-08-01T09:20:00,1,20753893,187854
OK,72,45,730,72,2014-08-01T09:25:00,0,20754342,187854
OK,72,45,730,72,2014-08-01T09:30:00,0,20754791,187854
OK,117,28,730,117,2014-08-01T09:35:00,2,20755240,187854
OK,117,28,730,117,2014-08-01T09:40:00,2,20755689,187854
OK,109,30,730,109,2014-08-01T09:45:00,0,20756138,187854
OK,109,30,730,109,2014-08-01T09:50:00,0,20756587,187854
OK,109,30,730,109,2014-08-01T09:55:00,0,20757036,187854
OK,109,30,730,109,2014-08-01T10:00:00,0,20757485,187854
OK,109,30,730,109,2014-08-01T10:05:00,0,20757934,187854
OK,111,29,730,111,2014-08-01T10:10:00,2,20758383,187854
OK,111,29,730,111,2014-08-01T10:15:00,2,20758832,187854
OK,112,29,730,112,2014-08-01T10:20:00,2,20759281,187854
OK,520,6,730,520,2014-08-01T10:25:00,2,20759730,187854
OK,131,25,730,131,2014-08-01T10:30:00,1,20760179,187854
OK,155,21,730,155,2014-08-01T10:35:00,1,20760628,187854
OK,153,21,730,153,2014-08-01T10:40:00,2,20761077,187854
OK,154,21,730,154,2014-08-01T10:45:00,1,20761526,187854
OK,154,21,730,154,2014-08-01T10:50:00,0,20761975,187854
OK,154,21,730,154,2014-08-01T10:55:00,0,20762424,187854
OK,154,21,730,154,2014-08-01T11:00:00,0,20762873,187854
OK,154,21,730,154,2014-08-01T11:05:00,0,20763322,187854
OK,154,21,730,154,2014-08-01T11:10:00,0,20763771,187854
OK,201,16,730,201,2014-08-01T11:15:00,1,20764220,187854
OK,170,19,730,170,2014-08-01T11:20:00,2,20764668,187854
OK,125,26,730,125,2014-08-01T11:25:00,2,20765117,187854
OK,102,32,730,102,2014-08-01T11:30:00,2,20765566,187854
OK,110,29,730,110,2014-08-01T11:35:00,3,20766015,187854
OK,110,29,730,110,2014-08-01T11:40:00,2,20766464,187854
OK,138,23,730,138,2014-08-01T11:45:00,1,20766913,187854
OK,138,23,730,138,2014-08-01T11:50:00,1,20767362,187854
OK,138,23,730,138,2014-08-01T11:55:00,0,20767811,187854
OK,145,22,730,145,2014-08-01T12:00:00,2,20768260,187854
OK,145,22,730,145,2014-08-01T12:05:00,2,20768709,187854
OK,142,23,730,142,2014-08-01T12:10:00,0,20769158,187854
OK,115,28,730,115,2014-08-01T12:15:00,1,20769607,187854
OK,111,29,730,111,2014-08-01T12:20:00,2,20770056,187854
OK,108,30,730,108,2014-08-01T12:25:00,1,20770505,187854
OK,108,30,730,108,2014-08-01T12:30:00,0,20770954,187854
OK,108,30,730,108,2014-08-01T12:35:00,0,20771403,187854
OK,141,23,730,141,2014-08-01T12:40:00,1,20771852,187854
OK,141,23,730,141,2014-08-01T12:45:00,1,20772301,187854
OK,141,23,730,141,2014-08-01T12:50:00,0,20772750,187854
OK,182,18,730,182,2014-08-01T12:55:00,1,20773199,187854
OK,180,18,730,180,2014-08-01T13:00:00,2,20773648,187854
OK,179,18,730,179,2014-08-01T13:05:00,1,20774097,187854
OK,179,18,730,179,2014-08-01T13:10:00,0,20774546,187854
OK,179,18,730,179,2014-08-01T13:15:00,0,20774995,187854
OK,161,20,730,161,2014-08-01T13:20:00,1,20775444,187854
OK,138,23,730,138,2014-08-01T13:25:00,2,20775893,187854
OK,115,28,730,115,2014-08-01T13:30:00,1,20776342,187854
OK,139,23,730,139,2014-08-01T13:35:00,1,20776791,187854
OK,139,23,730,139,2014-08-01T13:40:00,1,20777240,187854
OK,109,30,730,109,2014-08-01T13:45:00,1,20777689,187854
OK,109,30,730,109,2014-08-01T13:50:00,1,20778138,187854
OK,109,30,730,109,2014-08-01T13:55:00,0,20778587,187854
OK,109,30,730,109,2014-08-01T14:00:00,0,20779036,187854
OK,109,30,730,109,2014-08-01T14:05:00,0,20779485,187854
OK,151,21,730,151,2014-08-01T14:10:00,1,20779934,187854
OK,151,21,730,151,2014-08-01T14:15:00,1,20780383,187854
OK,151,21,730,151,2014-08-01T14:20:00,0,20780832,187854
OK,151,21,730,151,2014-08-01T14:25:00,0,20781281,187854
OK,152,21,730,152,2014-08-01T14:30:00,1,20781730,187854
OK,152,21,730,152,2014-08-01T14:35:00,1,20782179,187854
OK,152,21,730,152,2014-08-01T14:40:00,0,20782628,187854
OK,152,21,730,152,2014-08-01T14:45:00,0,20783077,187854
OK,152,21,730,152,2014-08-01T14:50:00,0,20783526,187854
OK,160,20,730,160,2014-08-01T14:55:00,1,20783975,187854
OK,160,20,730,160,2014-08-01T15:00:00,1,20784424,187854
OK,160,20,730,160,2014-08-01T15:05:00,0,20784873,187854
OK,148,22,730,148,2014-08-01T15:10:00,1,20785322,187854
OK,148,22,730,148,2014-08-01T15:15:00,1,20785771,187854
OK,148,22,730,148,2014-08-01T15:20:00,0,20786220,187854
OK,148,22,730,148,2014-08-01T15:25:00,0,20786669,187854
OK,148,22,730,148,2014-08-01T15:30:00,0,20787118,187854
OK,148,22,730,148,2014-08-01T15:35:00,0,20787567,187854
OK,148,22,730,148,2014-08-01T15:40:00,0,20788016,187854
OK,148,22,730,148,2014-08-01T15:45:00,0,20788465,187854
OK,148,22,730,148,2014-08-01T15:50:00,0,20788914,187854
OK,148,22,730,148,2014-08-01T15:55:00,0,20789363,187854
OK,148,22,730,148,2014-08-01T16:00:00,0,20789812,187854
OK,148,22,730,148,2014-08-01T16:05:00,0,20790261,187854
OK,148,22,730,148,2014-08-01T16:10:00,0,20790710,187854
OK,152,21,730,152,2014-08-01T16:15:00,1,20791159,187854
OK,152,21,730,152,2014-08-01T16:20:00,1,20791608,187854
OK,152,21,730,152,2014-08-01T16:25:00,0,20792057,187854
OK,152,21,730,152,2014-08-01T16:30:00,0,20792506,187854
OK,152,21,730,152,2014-08-01T16:35:00,0,20792955,187854
OK,154,21,730,154,2014-08-01T16:40:00,2,20793404,187854
OK,111,29,730,111,2014-08-01T16:45:00,1,20793853,187854
OK,111,29,730,111,2014-08-01T16:50:00,0,20794302,187854
OK,157,20,730,157,2014-08-01T16:55:00,1,20794751,187854
OK,157,20,730,157,2014-08-01T17:00:00,1,20795200,187854
OK,157,20,730,157,2014-08-01T17:05:00,0,20795649,187854
OK,157,20,730,157,2014-08-01T17:10:00,0,20796098,187854
OK,124,26,730,124,2014-08-01T17:15:00,1,20796547,187854
OK,124,26,730,124,2014-08-01T17:20:00,1,20796996,187854
OK,124,26,730,124,2014-08-01T17:25:00,0,20797445,187854
OK,124,26,730,124,2014-08-01T17:30:00,0,20797894,187854
OK,114,28,730,114,2014-08-01T17:35:00,1,20798343,187854
OK,114,28,730,114,2014-08-01T17:40:00,1,20798792,187854
OK,98,33,730,98,2014-08-01T17:45:00,1,20799241,187854
OK,98,33,730,98,2014-08-01T17:50:00,1,20799690,187854
OK,98,33,730,98,2014-08-01T17:55:00,0,20800139,187854
OK,98,33,730,98,2014-08-01T18:00:00,0,20800588,187854
OK,98,33,730,98,2014-08-01T18:05:00,0,20801037,187854
OK,98,33,730,98,2014-08-01T18:10:00,0,20801486,187854
OK,98,33,730,98,2014-08-01T18:15:00,0,20801935,187854
OK,98,33,730,98,2014-08-01T18:20:00,0,20802384,187854
OK,98,33,730,98,2014-08-01T18:25:00,0,20802833,187854
OK,98,33,730,98,2014-08-01T18:30:00,0,20803282,187854
OK,98,33,730,98,2014-08-01T18:35:00,0,20803731,187854
OK,98,33,730,98,2014-08-01T18:40:00,0,20804180,187854
OK,98,33,730,98,2014-08-01T18:45:00,0,20804629,187854
OK,98,33,730,98,2014-08-01T18:50:00,0,20805078,187854
OK,98,33,730,98,2014-08-01T18:55:00,0,20805527,187854
OK,98,33,730,98,2014-08-01T19:00:00,0,20805976,187854
OK,98,33,730,98,2014-08-01T19:05:00,0,20806425,187854
OK,98,33,730,98,2014-08-01T19:10:00,0,20806874,187854
OK,98,33,730,98,2014-08-01T19:15:00,0,20807323,187854
OK,126,26,730,126,2014-08-01T19:20:00,1,20807772,187854
OK,126,26,730,126,2014-08-01T19:25:00,1,20808221,187854
OK,126,26,730,126,2014-08-01T19:30:00,0,20808670,187854
OK,126,26,730,126,2014-08-01T19:35:00,0,20809119,187854
OK,126,26,730,126,2014-08-01T19:40:00,0,20809568,187854
OK,91,36,730,91,2014-08-01T19:45:00,1,20810017,187854
OK,91,36,730,91,2014-08-01T19:50:00,0,20810466,187854
OK,91,36,730,91,2014-08-01T19:55:00,0,20810915,187854
OK,91,36,730,91,2014-08-01T20:00:00,0,20811360,187854
OK,91,36,730,91,2014-08-01T20:05:00,0,20811534,187854
OK,91,36,730,91,2014-08-01T20:10:00,0,20811737,187854
OK,91,36,730,91,2014-08-01T20:15:00,0,20811942,187854
OK,91,36,730,91,2014-08-01T20:20:00,0,20812152,187854
OK,91,36,730,91,2014-08-01T20:25:00,0,20812370,187854
OK,91,36,730,91,2014-08-01T20:30:00,0,20812585,187854
OK,91,36,730,91,2014-08-01T20:35:00,0,20812793,187854
OK,113,28,730,113,2014-08-01T20:40:00,1,20812995,187854
OK,128,25,730,128,2014-08-01T20:45:00,4,20813203,187854
OK,142,23,730,142,2014-08-01T20:50:00,5,20813413,187854
OK,148,22,730,148,2014-08-01T20:55:00,2,20813644,187854
OK,148,22,730,148,2014-08-01T21:00:00,0,20813882,187854
OK,148,22,730,148,2014-08-01T21:05:00,0,20814058,187854
OK,148,22,730,148,2014-08-01T21:10:00,0,20814298,187854
OK,148,22,730,148,2014-08-01T21:15:00,0,20814494,187854
OK,148,22,730,148,2014-08-01T21:20:00,0,20814701,187854
OK,148,22,730,148,2014-08-01T21:25:00,0,20814930,187854
OK,148,22,730,148,2014-08-01T21:30:00,0,20815206,187854
OK,148,22,730,148,2014-08-01T21:35:00,0,20815439,187854
OK,148,22,730,148,2014-08-01T21:40:00,0,20815663,187854
OK,148,22,730,148,2014-08-01T21:45:00,0,20815900,187854
OK,148,22,730,148,2014-08-01T21:50:00,0,20816141,187854
OK,148,22,730,148,2014-08-01T21:55:00,0,20816376,187854
OK,148,22,730,148,2014-08-01T22:00:00,0,20816644,187854
OK,148,22,730,148,2014-08-01T22:05:00,0,20817093,187854
OK,148,22,730,148,2014-08-01T22:10:00,0,20817415,187854
OK,148,22,730,148,2014-08-01T22:15:00,0,20817844,187854
OK,148,22,730,148,2014-08-01T22:20:00,0,20818134,187854
OK,148,22,730,148,2014-08-01T22:25:00,0,20818450,187854
OK,148,22,730,148,2014-08-01T22:30:00,0,20818784,187854
OK,148,22,730,148,2014-08-01T22:35:00,0,20819084,187854
OK,148,22,730,148,2014-08-01T22:40:00,0,20819268,187854
OK,148,22,730,148,2014-08-01T22:45:00,0,20819556,187854
OK,148,22,730,148,2014-08-01T22:50:00,0,20819791,187854
OK,148,22,730,148,2014-08-01T22:55:00,0,20820044,187854
OK,148,22,730,148,2014-08-01T23:00:00,0,20820220,187854
OK,148,22,730,148,2014-08-01T23:05:00,0,20820473,187854
OK,148,22,730,148,2014-08-01T23:10:00,0,20820703,187854
OK,148,22,730,148,2014-08-01T23:15:00,0,20820891,187854
OK,148,22,730,148,2014-08-01T23:20:00,0,20821140,187854
OK,148,22,730,148,2014-08-01T23:25:00,0,20821319,187854
OK,148,22,730,148,2014-08-01T23:30:00,0,20821545,187854
OK,148,22,730,148,2014-08-01T23:35:00,0,20821789,187854
OK,148,22,730,148,2014-08-01T23:40:00,0,20821969,187854
OK,302,10,730,302,2014-08-01T23:45:00,1,20822192,187854
OK,302,10,730,302,2014-08-01T23:50:00,1,20822459,187854
OK,302,10,730,302,2014-08-01T23:55:00,0,20822785,187854
OK,302,10,730,302,2014-08-02T00:00:00,0,20823083,187854
OK,302,10,730,302,2014-08-02T00:05:00,0,20823532,187854
OK,302,10,730,302,2014-08-02T00:10:00,0,20823981,187854
OK,302,10,730,302,2014-08-02T00:15:00,0,20824430,187854
OK,302,10,730,302,2014-08-02T00:20:00,0,20824879,187854
OK,302,10,730,302,2014-08-02T00:25:00,0,20825328,187854
OK,302,10,730,302,2014-08-02T00:30:00,0,20825777,187854
OK,302,10,730,302,2014-08-02T00:35:00,0,20826226,187854
OK,302,10,730,302,2014-08-02T00:40:00,0,20826675,187854
OK,302,10,730,302,2014-08-02T00:45:00,0,20827124,187854
OK,302,10,730,302,2014-08-02T00:50:00,0,20827573,187854
OK,302,10,730,302,2014-08-02T00:55:00,0,20828022,187854
OK,302,10,730,302,2014-08-02T01:00:00,0,20828471,187854
OK,302,10,730,302,2014-08-02T01:05:00,0,20828920,187854
OK,302,10,730,302,2014-08-02T01:10:00,0,20829369,187854
OK,302,10,730,302,2014-08-02T01:15:00,0,20829818,187854
OK,302,10,730,302,2014-08-02T01:20:00,0,20830267,187854
OK,302,10,730,302,2014-08-02T01:25:00,0,20830716,187854
OK,302,10,730,302,2014-08-02T01:30:00,0,20831165,187854
OK,302,10,730,302,2014-08-02T01:35:00,0,20831614,187854
OK,302,10,730,302,2014-08-02T01:40:00,0,20832063,187854
OK,302,10,730,302,2014-08-02T01:45:00,0,20832512,187854
OK,302,10,730,302,2014-08-02T01:50:00,0,20832961,187854
OK,302,10,730,302,2014-08-02T01:55:00,0,20833410,187854
OK,302,10,730,302,2014-08-02T02:00:00,0,20833859,187854
OK,302,10,730,302,2014-08-02T02:05:00,0,20834308,187854
OK,302,10,730,302,2014-08-02T02:10:00,0,20834757,187854
OK,302,10,730,302,2014-08-02T02:15:00,0,20835206,187854
OK,302,10,730,302,2014-08-02T02:20:00,0,20835655,187854
OK,302,10,730,302,2014-08-02T02:25:00,0,20836104,187854
OK,302,10,730,302,2014-08-02T02:30:00,0,20836553,187854
OK,302,10,730,302,2014-08-02T02:35:00,0,20837002,187854
OK,302,10,730,302,2014-08-02T02:40:00,0,20837451,187854
OK,302,10,730,302,2014-08-02T02:45:00,0,20837900,187854
OK,302,10,730,302,2014-08-02T02:50:00,0,20838349,187854
OK,302,10,730,302,2014-08-02T02:55:00,0,20838798,187854
OK,302,10,730,302,2014-08-02T03:00:00,0,20839247,187854
OK,302,10,730,302,2014-08-02T03:05:00,0,20839696,187854
OK,302,10,730,302,2014-08-02T03:10:00,0,20840145,187854
OK,302,10,730,302,2014-08-02T03:15:00,0,20840594,187854
OK,302,10,730,302,2014-08-02T03:20:00,0,20841043,187854
OK,302,10,730,302,2014-08-02T03:25:00,0,20841492,187854
OK,302,10,730,302,2014-08-02T03:30:00,0,20841941,187854
OK,302,10,730,302,2014-08-02T03:35:00,0,20842390,187854
OK,302,10,730,302,2014-08-02T03:40:00,0,20842839,187854
OK,302,10,730,302,2014-08-02T03:45:00,0,20843288,187854
OK,302,10,730,302,2014-08-02T03:50:00,0,20843737,187854
OK,302,10,730,302,2014-08-02T03:55:00,0,20844186,187854
OK,302,10,730,302,2014-08-02T04:00:00,0,20844635,187854
OK,302,10,730,302,2014-08-02T04:05:00,0,20844766,187854
OK,302,10,730,302,2014-08-02T04:10:00,0,20845096,187854
OK,302,10,730,302,2014-08-02T04:15:00,0,20845276,187854
OK,302,10,730,302,2014-08-02T04:20:00,0,20845632,187854
OK,302,10,730,302,2014-08-02T04:25:00,0,20845976,187854
OK,302,10,730,302,2014-08-02T04:30:00,0,20846188,187854
OK,302,10,730,302,2014-08-02T04:35:00,0,20846555,187854
OK,132,24,730,132,2014-08-02T04:40:00,1,20846938,187854
OK,132,24,730,132,2014-08-02T04:45:00,0,20847197,187854
OK,132,24,730,132,2014-08-02T04:50:00,0,20847563,187854
OK,132,24,730,132,2014-08-02T04:55:00,0,20847920,187854
OK,132,24,730,132,2014-08-02T05:00:00,0,20848280,187854
OK,132,24,730,132,2014-08-02T05:05:00,0,20848444,187854
OK,132,24,730,132,2014-08-02T05:10:00,0,20848798,187854
OK,132,24,730,132,2014-08-02T05:15:00,0,20848990,187854
OK,132,24,730,132,2014-08-02T05:20:00,0,20849334,187854
OK,132,24,730,132,2014-08-02T05:25:00,0,20849859,187854
OK,132,24,730,132,2014-08-02T05:35:00,0,20850131,187854
OK,132,24,730,132,2014-08-02T05:40:00,0,20850424,187854
OK,132,24,730,132,2014-08-02T05:45:00,0,20850725,187854
OK,132,24,730,132,2014-08-02T05:50:00,0,20851083,187854
OK,132,24,730,132,2014-08-02T05:55:00,0,20851337,187854
OK,132,24,730,132,2014-08-02T06:00:00,0,20851640,187854
OK,132,24,730,132,2014-08-02T06:05:00,0,20852089,187854
OK,132,24,730,132,2014-08-02T06:10:00,0,20852538,187854
OK,132,24,730,132,2014-08-02T06:15:00,0,20852987,187854
OK,132,24,730,132,2014-08-02T06:20:00,0,20853436,187854
OK,132,24,730,132,2014-08-02T06:25:00,0,20853885,187854
OK,132,24,730,132,2014-08-02T06:30:00,0,20854334,187854
OK,132,24,730,132,2014-08-02T06:35:00,0,20854783,187854
OK,132,24,730,132,2014-08-02T06:40:00,0,20855232,187854
OK,132,24,730,132,2014-08-02T06:45:00,0,20855681,187854
OK,132,24,730,132,2014-08-02T06:50:00,0,20856130,187854
OK,132,24,730,132,2014-08-02T06:55:00,0,20856579,187854
OK,132,24,730,132,2014-08-02T07:00:00,0,20857028,187854
OK,132,24,730,132,2014-08-02T07:05:00,0,20857477,187854
OK,132,24,730,132,2014-08-02T07:10:00,0,20857926,187854
OK,132,24,730,132,2014-08-02T07:15:00,0,20858375,187854
OK,132,24,730,132,2014-08-02T07:20:00,0,20858824,187854
OK,102,32,730,102,2014-08-02T07:25:00,1,20859273,187854
OK,96,34,730,96,2014-08-02T07:30:00,2,20859722,187854
OK,72,45,730,72,2014-08-02T07:35:00,1,20860171,187854
OK,72,45,730,72,2014-08-02T07:40:00,0,20860620,187854
OK,72,45,730,72,2014-08-02T07:45:00,0,20861069,187854
OK,72,45,730,72,2014-08-02T07:50:00,0,20861518,187854
OK,72,45,730,72,2014-08-02T07:55:00,0,20861967,187854
OK,72,45,730,72,2014-08-02T08:00:00,0,20862416,187854
OK,72,45,730,72,2014-08-02T08:05:00,0,20862865,187854
OK,72,45,730,72,2014-08-02T08:10:00,0,20863314,187854
OK,72,45,730,72,2014-08-02T08:15:00,0,20863763,187854
OK,107,30,730,107,2014-08-02T08:20:00,1,20864212,187854
OK,107,30,730,107,2014-08-02T08:25:00,1,20864661,187854
OK,107,30,730,107,2014-08-02T08:30:00,0,20865110,187854
OK,107,30,730,107,2014-08-02T08:35:00,0,20865559,187854
OK,107,30,730,107,2014-08-02T08:40:00,0,20866008,187854
OK,107,30,730,107,2014-08-02T08:45:00,0,20866457,187854
OK,148,22,730,148,2014-08-02T08:50:00,2,20866906,187854
OK,148,22,730,148,2014-08-02T08:55:00,2,20867355,187854
OK,86,38,730,86,2014-08-02T09:00:00,1,20867804,187854
OK,97,33,730,97,2014-08-02T09:05:00,2,20868253,187854
OK,113,28,730,113,2014-08-02T09:10:00,2,20868702,187854
OK,118,27,730,118,2014-08-02T09:15:00,1,20869151,187854
OK,113,28,730,113,2014-08-02T09:20:00,1,20869600,187854
OK,128,25,730,128,2014-08-02T09:25:00,2,20870049,187854
OK,144,22,730,144,2014-08-02T09:30:00,1,20870498,187854
OK,144,22,730,144,2014-08-02T09:35:00,0,20870947,187854
OK,144,22,730,144,2014-08-02T09:40:00,0,20871396,187854
OK,144,22,730,144,2014-08-02T09:45:00,0,20871845,187854
OK,144,22,730,144,2014-08-02T09:50:00,0,20872294,187854
OK,144,22,730,144,2014-08-02T09:55:00,0,20872743,187854
OK,144,22,730,144,2014-08-02T10:00:00,0,20873192,187854
OK,144,22,730,144,2014-08-02T10:05:00,0,20873641,187854
OK,144,22,730,144,2014-08-02T10:10:00,0,20874090,187854
OK,148,22,730,148,2014-08-02T10:15:00,1,20874539,187854
OK,148,22,730,148,2014-08-02T10:20:00,0,20874988,187854
OK,148,22,730,148,2014-08-02T10:25:00,0,20875437,187854
OK,148,22,730,148,2014-08-02T10:30:00,0,20875886,187854
OK,148,22,730,148,2014-08-02T10:35:00,0,20876335,187854
OK,148,22,730,148,2014-08-02T10:40:00,0,20876784,187854
OK,148,22,730,148,2014-08-02T10:45:00,0,20877233,187854
OK,148,22,730,148,2014-08-02T10:50:00,0,20877682,187854
OK,148,22,730,148,2014-08-02T10:55:00,0,20878131,187854
OK,148,22,730,148,2014-08-02T11:00:00,0,20878580,187854
OK,148,22,730,148,2014-08-02T11:05:00,0,20879029,187854
OK,148,22,730,148,2014-08-02T11:10:00,0,20879478,187854
OK,148,22,730,148,2014-08-02T11:15:00,0,20879927,187854
OK,148,22,730,148,2014-08-02T11:20:00,0,20880376,187854
OK,148,22,730,148,2014-08-02T11:25:00,0,20880825,187854
OK,150,21,730,150,2014-08-02T11:30:00,1,20881274,187854
OK,150,21,730,150,2014-08-02T11:35:00,1,20881723,187854
OK,150,21,730,150,2014-08-02T11:40:00,0,20882172,187854
OK,150,21,730,150,2014-08-02T11:45:00,0,20882621,187854
OK,150,21,730,150,2014-08-02T11:50:00,0,20883070,187854
OK,157,20,730,157,2014-08-02T11:55:00,1,20883519,187854
OK,157,20,730,157,2014-08-02T12:00:00,1,20883968,187854
OK,157,20,730,157,2014-08-02T12:05:00,0,20884417,187854
OK,106,30,730,106,2014-08-02T12:10:00,1,20884866,187854
OK,106,30,730,106,2014-08-02T12:15:00,1,20885315,187854
OK,106,30,730,106,2014-08-02T12:20:00,0,20885764,187854
OK,106,30,730,106,2014-08-02T12:25:00,0,20886213,187854
OK,158,20,730,158,2014-08-02T12:30:00,1,20886662,187854
OK,158,20,730,158,2014-08-02T12:35:00,1,20887111,187854
OK,158,20,730,158,2014-08-02T12:40:00,0,20887560,187854
OK,158,20,730,158,2014-08-02T12:45:00,0,20888009,187854
OK,158,20,730,158,2014-08-02T12:50:00,0,20888458,187854
OK,158,20,730,158,2014-08-02T12:55:00,0,20888907,187854
OK,158,20,730,158,2014-08-02T13:00:00,0,20889356,187854
OK,158,20,730,158,2014-08-02T13:05:00,0,20889805,187854
OK,158,20,730,158,2014-08-02T13:10:00,0,20890254,187854
OK,158,20,730,158,2014-08-02T13:15:00,0,20890703,187854
OK,158,20,730,158,2014-08-02T13:20:00,0,20891152,187854
OK,158,20,730,158,2014-08-02T13:25:00,0,20891601,187854
OK,158,20,730,158,2014-08-02T13:30:00,0,20892050,187854
OK,158,20,730,158,2014-08-02T13:35:00,0,20892499,187854
OK,158,20,730,158,2014-08-02T13:40:00,0,20892948,187854
OK,158,20,730,158,2014-08-02T13:45:00,0,20893397,187854
OK,103,31,730,103,2014-08-02T13:50:00,1,20893846,187854
OK,103,31,730,103,2014-08-02T13:55:00,0,20894295,187854
OK,144,22,730,144,2014-08-02T14:00:00,1,20894744,187854
OK,144,22,730,144,2014-08-02T14:05:00,1,20895193,187854
OK,144,22,730,144,2014-08-02T14:10:00,0,20895642,187854
OK,144,22,730,144,2014-08-02T14:15:00,0,20896091,187854
OK,144,22,730,144,2014-08-02T14:20:00,0,20896540,187854
OK,144,22,730,144,2014-08-02T14:25:00,0,20896989,187854
OK,144,22,730,144,2014-08-02T14:30:00,0,20897438,187854
OK,144,22,730,144,2014-08-02T14:35:00,0,20897887,187854
OK,135,24,730,135,2014-08-02T14:40:00,1,20898336,187854
OK,135,24,730,135,2014-08-02T14:45:00,0,20898785,187854
OK,135,24,730,135,2014-08-02T14:50:00,0,20899234,187854
OK,78,42,730,78,2014-08-02T14:55:00,1,20899683,187854
OK,100,32,730,100,2014-08-02T15:00:00,2,20900132,187854
OK,122,26,730,122,2014-08-02T15:05:00,1,20900581,187854
OK,122,26,730,122,2014-08-02T15:10:00,0,20901030,187854
OK,122,26,730,122,2014-08-02T15:15:00,0,20901479,187854
OK,122,26,730,122,2014-08-02T15:20:00,0,20901928,187854
OK,122,26,730,122,2014-08-02T15:25:00,0,20902377,187854
OK,122,26,730,122,2014-08-02T15:30:00,0,20902826,187854
OK,122,26,730,122,2014-08-02T15:35:00,0,20903275,187854
OK,122,26,730,122,2014-08-02T15:40:00,0,20903724,187854
OK,101,32,730,101,2014-08-02T15:45:00,1,20904173,187854
OK,83,39,730,83,2014-08-02T15:50:00,2,20904622,187854
OK,66,49,730,66,2014-08-02T15:55:00,1,20905071,187854
OK,66,49,730,66,2014-08-02T16:00:00,0,20905520,187854
OK,66,49,730,66,2014-08-02T16:05:00,0,20905969,187854
OK,66,49,730,66,2014-08-02T16:10:00,0,20906418,187854
OK,66,49,730,66,2014-08-02T16:15:00,0,20906867,187854
OK,66,49,730,66,2014-08-02T16:20:00,0,20907316,187854
OK,66,49,730,66,2014-08-02T16:25:00,0,20907765,187854
OK,66,49,730,66,2014-08-02T16:30:00,0,20908214,187854
OK,66,49,730,66,2014-08-02T16:35:00,0,20908663,187854
OK,66,49,730,66,2014-08-02T16:40:00,0,20909112,187854
OK,66,49,730,66,2014-08-02T16:45:00,0,20909561,187854
OK,66,49,730,66,2014-08-02T16:50:00,0,20910010,187854
OK,66,49,730,66,2014-08-02T16:55:00,0,20910459,187854
OK,66,49,730,66,2014-08-02T17:00:00,0,20910908,187854
OK,66,49,730,66,2014-08-02T17:05:00,0,20911357,187854
OK,66,49,730,66,2014-08-02T17:10:00,0,20911806,187854
OK,66,49,730,66,2014-08-02T17:15:00,0,20912255,187854
OK,66,49,730,66,2014-08-02T17:20:00,0,20912704,187854
OK,66,49,730,66,2014-08-02T17:25:00,0,20913153,187854
OK,156,21,730,156,2014-08-02T17:30:00,1,20913602,187854
OK,156,21,730,156,2014-08-02T17:35:00,1,20914051,187854
OK,156,21,730,156,2014-08-02T17:40:00,0,20914500,187854
OK,156,21,730,156,2014-08-02T17:45:00,0,20914949,187854
OK,156,21,730,156,2014-08-02T17:50:00,0,20915398,187854
OK,156,21,730,156,2014-08-02T17:55:00,0,20915847,187854
OK,156,21,730,156,2014-08-02T18:00:00,0,20916296,187854
OK,156,21,730,156,2014-08-02T18:05:00,0,20916745,187854
OK,156,21,730,156,2014-08-02T18:10:00,0,20917194,187854
OK,156,21,730,156,2014-08-02T18:15:00,0,20917643,187854
OK,156,21,730,156,2014-08-02T18:20:00,0,20918092,187854
OK,156,21,730,156,2014-08-02T18:25:00,0,20918541,187854
OK,156,21,730,156,2014-08-02T18:30:00,0,20918990,187854
OK,75,43,730,75,2014-08-02T18:35:00,1,20919439,187854
OK,75,43,730,75,2014-08-02T18:40:00,1,20919888,187854
OK,75,43,730,75,2014-08-02T18:45:00,0,20920337,187854
OK,75,43,730,75,2014-08-02T18:50:00,0,20920786,187854
OK,75,43,730,75,2014-08-02T18:55:00,0,20921235,187854
OK,75,43,730,75,2014-08-02T19:00:00,0,20921684,187854